Main page
Satellite images Climate Cyclones Lightning AirportsFAQ Languages Contact Newsletter About
Weather : Europe Africa North America South America Asia Australia-Oceania Others

chiang-mai-th, Chiang Mai, Chiang Mai International Airport

48327

latitude: , longitude: Thailand, elevation: 18-47N m


METAR: VTCC 200300Z 20007KT 9999 FEW025CB SCT035 30/22 Q1009 NOSIG